Weather History for PMDY - March, 2014

Change the Weather History Date:

Wednesday, March 19, 2014

  Actual Average Record
Temperature  
Mean Temperature 65 °F -  
Max Temperature 68 °F - - ()
Min Temperature 62 °F - - ()
Growing Degree Days 15 (Base 50)    
Moisture  
Dew Point 65 °F    
Average Humidity 100    
Maximum Humidity 100    
Minimum Humidity 100    
Precipitation  
Precipitation 0.02 in - - ()
Sea Level Pressure  
Sea Level Pressure 30.48 in    
Wind  
Wind Speed 7 mph (NE)    
Max Wind Speed 15 mph    
Max Gust Speed 21 mph    
Visibility 5 miles    
Events Rain    
T = Trace of Precipitation, MM = Missing Value Source: NWS Daily Summary

Daily Weather History Graph

Daily Weather History Graph

Search for Another Location

Airport or City:

Trip Planner

Search our weather history database for the weather conditions in past years. The results will help you decide how hot, cold, wet, or windy it might be!

Date:

Astronomy

Mar. 19, 2014 Rise Set
Actual Time 5:54 PM GMT 6:00 AM GMT
Civil Twilight 5:30 PM GMT 6:23 AM GMT
Nautical Twilight 5:03 PM GMT 6:51 AM GMT
Astronomical Twilight 4:35 PM GMT 7:18 AM GMT
Moon 8:17 AM GMT (3/19) 7:46 PM GMT (3/19)
Length of Visible Light 12h 53m
Length of Day
12h 06m
Waning Gibbous, 92% of the Moon is Illuminated
Mar 19
Waning Gibbous
Mar 24
Last Quarter
Mar 30
New
Apr 7
First Quarter
Apr 15
Full

Hourly Weather History & Observations

Time (GMT) Temp. Dew Point Humidity Pressure Visibility Wind Dir Wind Speed Gust Speed Precip Events Conditions
12:18 AM 66.2 °F 66.2 °F 100% 30.17 in 2.5 mi Calm Calm - N/A   Overcast
12:20 AM 66.2 °F 66.2 °F 100% 30.17 in 2.0 mi Calm Calm - N/A   Overcast
12:25 AM 66.2 °F 66.2 °F 100% 30.17 in 2.0 mi Calm Calm - N/A   Overcast
12:49 AM 66.2 °F 66.2 °F 100% 30.16 in 1.8 mi Calm Calm - N/A   Overcast
12:56 AM 66.9 °F 66.9 °F 100% 31.08 in 1.5 mi ENE 5.8 mph - N/A   Overcast
1:03 AM 66.2 °F 66.2 °F 100% 30.15 in 3.0 mi East 5.8 mph - N/A   Overcast
1:17 AM 66.2 °F 66.2 °F 100% 30.15 in 10.0 mi East 3.5 mph - N/A   Overcast
1:56 AM 68.0 °F 68.0 °F 100% 31.07 in 10.0 mi ENE 4.6 mph - N/A   Overcast
2:08 AM 68.0 °F 68.0 °F 100% 30.14 in 10.0 mi Variable 3.5 mph - N/A   Mostly Cloudy
2:16 AM 68.0 °F 68.0 °F 100% 30.14 in 10.0 mi ENE 4.6 mph - N/A   Mostly Cloudy
2:44 AM 66.2 °F 66.2 °F 100% 30.14 in 7.0 mi Calm Calm - N/A   Overcast
2:56 AM 66.2 °F 66.2 °F 100% 30.14 in 3.0 mi Calm Calm - N/A   Overcast
3:56 AM 66.9 °F 66.9 °F 100% 31.06 in 8.0 mi Calm Calm - N/A   Mostly Cloudy
4:15 AM 66.2 °F 66.2 °F 100% 30.14 in 7.0 mi Calm Calm - N/A   Overcast
4:34 AM 64.4 °F 64.4 °F 100% 30.14 in 2.0 mi NE 8.1 mph - 0.00 in Rain Light Rain
4:40 AM 64.4 °F 64.4 °F 100% 30.14 in 1.2 mi NE 10.4 mph - 0.01 in Rain Light Rain
4:48 AM 64.4 °F - N/A% 30.15 in 1.0 mi NE 10.4 mph - 0.01 in Rain Light Rain
4:56 AM 64.9 °F - N/A% 31.07 in 1.2 mi NE 9.2 mph - 0.01 in Rain Light Rain
5:00 AM 64.4 °F - N/A% 30.15 in 2.0 mi NE 9.2 mph - 0.00 in Rain Light Rain
5:14 AM 64.4 °F - N/A% 30.15 in 5.0 mi NE 10.4 mph - 0.00 in   Haze
5:44 AM 64.4 °F 64.4 °F 100% 30.16 in 9.0 mi NE 10.4 mph - 0.00 in   Mostly Cloudy
5:56 AM 64.4 °F 64.4 °F 100% 30.16 in 9.0 mi NE 12.7 mph - N/A   Overcast
6:47 AM 64.4 °F 64.4 °F 100% 30.17 in 10.0 mi NE 9.2 mph - N/A   Overcast
6:56 AM 64.9 °F 64.9 °F 100% 31.09 in 8.0 mi NE 9.2 mph - N/A   Overcast
7:24 AM 64.4 °F 64.4 °F 100% 30.18 in 10.0 mi NE 12.7 mph - N/A   Overcast
7:47 AM 64.4 °F 64.4 °F 100% 30.19 in 9.0 mi NE 10.4 mph 18.4 mph N/A   Overcast
7:56 AM 64.9 °F 64.9 °F 100% 31.12 in 9.0 mi NE 12.7 mph 18.4 mph N/A   Overcast
8:56 AM 63.9 °F 63.9 °F 100% 31.12 in 10.0 mi NE 11.5 mph - N/A   Overcast
9:56 AM 63.9 °F 63.9 °F 100% 31.12 in 9.0 mi ENE 11.5 mph - N/A   Mostly Cloudy
10:56 AM 63.9 °F 63.9 °F 100% 31.12 in 9.0 mi ENE 10.4 mph - N/A   Overcast
11:56 AM 63.9 °F 63.9 °F 100% 31.11 in 10.0 mi ENE 10.4 mph - N/A   Overcast
12:56 PM 63.9 °F 63.9 °F 100% 31.10 in 9.0 mi NE 9.2 mph - N/A   Overcast
1:37 PM 64.4 °F 64.4 °F 100% 30.17 in 10.0 mi ENE 11.5 mph - 0.00 in   Overcast
1:44 PM 64.4 °F 64.4 °F 100% 30.17 in 10.0 mi NE 11.5 mph - 0.00 in   Overcast
1:56 PM 63.9 °F 63.9 °F 100% 31.09 in 10.0 mi NE 11.5 mph - 0.00 in   Overcast
2:56 PM 63.9 °F 63.9 °F 100% 31.08 in 10.0 mi ENE 12.7 mph - N/A   Overcast
3:56 PM 63.0 °F - N/A% 31.08 in 10.0 mi NE 11.5 mph - N/A   Overcast
4:56 PM 63.0 °F 63.0 °F 100% 31.10 in 10.0 mi NE 12.7 mph - N/A   Overcast
5:56 PM 62.6 °F - N/A% 30.19 in 1.5 mi NE 11.5 mph 20.7 mph N/A Rain Light Rain
6:06 PM 62.6 °F - N/A% 30.18 in 1.0 mi NE 13.8 mph - 0.00 in Rain Light Rain
6:12 PM 62.6 °F - N/A% 30.18 in 0.8 mi ENE 13.8 mph - 0.00 in Rain Light Rain
6:16 PM 62.6 °F - N/A% 30.19 in 1.0 mi NE 13.8 mph - 0.00 in Rain Light Rain
6:28 PM 62.6 °F - N/A% 30.19 in 1.2 mi ENE 12.7 mph - 0.01 in Rain Light Rain
6:30 PM 62.6 °F - N/A% 30.19 in 1.0 mi NE 15.0 mph - 0.01 in Rain Light Rain
6:33 PM 62.6 °F - N/A% 30.19 in 1.2 mi NE 15.0 mph - 0.01 in Rain Light Rain
6:36 PM 62.6 °F - N/A% 30.19 in 1.5 mi ENE 12.7 mph 20.7 mph 0.01 in Rain Light Rain
6:40 PM 62.6 °F - N/A% 30.19 in 3.0 mi NE 12.7 mph 20.7 mph 0.01 in Rain Light Rain
6:56 PM 63.0 °F - N/A% 31.12 in 9.0 mi ENE 13.8 mph - 0.01 in   Overcast
7:09 PM 62.6 °F - N/A% 30.20 in 9.0 mi NE 15.0 mph - 0.00 in   Overcast
7:56 PM 63.9 °F - N/A% 31.13 in 5.0 mi ENE 12.7 mph - 0.00 in   Haze
8:56 PM 65.8 °F 65.8 °F 100% 31.14 in 10.0 mi ENE 13.8 mph 19.6 mph N/A   Overcast
9:56 PM 65.8 °F 65.8 °F 100% 31.15 in 3.0 mi ENE 13.8 mph - 0.00 in Rain Light Rain
10:01 PM 64.4 °F 64.4 °F 100% 30.22 in 1.8 mi ENE 12.7 mph - 0.00 in Rain Light Rain
10:12 PM 64.4 °F 64.4 °F 100% 30.22 in 3.0 mi NE 11.5 mph - 0.00 in Rain Light Rain
10:56 PM 65.8 °F 65.8 °F 100% 31.15 in 4.0 mi ENE 11.5 mph - 0.00 in Rain Light Rain
10:58 PM 66.2 °F 66.2 °F 100% 30.22 in 2.5 mi ENE 10.4 mph - 0.00 in Rain Light Rain
11:01 PM 66.2 °F 66.2 °F 100% 30.22 in 1.2 mi ENE 10.4 mph - 0.00 in Rain Light Rain
11:04 PM 64.4 °F 64.4 °F 100% 30.22 in 0.8 mi NE 9.2 mph - 0.00 in Rain Light Rain
11:13 PM 64.4 °F 64.4 °F 100% 30.22 in 1.2 mi NE 8.1 mph - 0.00 in Rain Light Rain
11:22 PM 64.4 °F - N/A% 30.21 in 0.8 mi ENE 11.5 mph - 0.00 in Rain Light Rain
11:44 PM 64.4 °F - N/A% 30.20 in 0.5 mi ENE 9.2 mph - 0.00 in Rain Light Rain
11:56 PM 64.4 °F - N/A% 30.20 in 0.5 mi ENE 9.2 mph - N/A Rain Light Rain